TimeCDT,TemperatureF,Dew PointF,Humidity,Sea Level PressureIn,VisibilityMPH,Wind Direction,Wind SpeedMPH,Gust SpeedMPH,PrecipitationIn,Events,Conditions,WindDirDegrees,DateUTC
12:18 AM,75.2,73.4,94,29.94,7.0,Calm,Calm,-,N/A,,Clear,0,2013-08-28 05:18:00
12:33 AM,75.2,73.4,94,29.94,7.0,Calm,Calm,-,N/A,,Clear,0,2013-08-28 05:33:00
12:52 AM,75.2,73.4,94,29.95,5.0,Calm,Calm,-,N/A,,Clear,0,2013-08-28 05:52:00
1:12 AM,75.2,73.4,94,29.94,7.0,Calm,Calm,-,N/A,,Clear,0,2013-08-28 06:12:00
1:52 AM,77.0,73.4,89,29.95,7.0,NE,3.5,-,N/A,,Clear,50,2013-08-28 06:52:00
2:12 AM,77.0,75.2,94,29.95,5.0,ENE,3.5,-,N/A,,Scattered Clouds,60,2013-08-28 07:12:00
2:33 AM,77.0,75.2,94,29.95,4.0,Calm,Calm,-,N/A,,Scattered Clouds,0,2013-08-28 07:33:00
2:52 AM,77.0,75.2,94,29.95,4.0,Calm,Calm,-,N/A,,Scattered Clouds,0,2013-08-28 07:52:00
3:12 AM,77.0,73.4,89,29.94,2.5,ENE,4.6,-,N/A,,Scattered Clouds,60,2013-08-28 08:12:00
3:32 AM,77.0,75.2,94,29.94,3.0,NE,4.6,-,N/A,,Clear,40,2013-08-28 08:32:00
3:52 AM,75.2,73.4,94,29.94,3.0,NE,3.5,-,N/A,,Clear,50,2013-08-28 08:52:00
4:12 AM,75.2,73.4,94,29.95,2.5,ENE,3.5,-,N/A,,Clear,60,2013-08-28 09:12:00
4:32 AM,75.2,73.4,94,29.95,2.5,ENE,4.6,-,N/A,,Clear,70,2013-08-28 09:32:00
4:52 AM,75.2,73.4,94,29.94,2.5,ENE,3.5,-,N/A,,Clear,70,2013-08-28 09:52:00
5:12 AM,75.2,73.4,94,29.94,2.5,Calm,Calm,-,N/A,,Clear,0,2013-08-28 10:12:00
5:32 AM,75.2,73.4,94,29.95,2.5,Calm,Calm,-,N/A,,Clear,0,2013-08-28 10:32:00
5:52 AM,75.2,73.4,94,29.95,2.5,Calm,Calm,-,N/A,,Clear,0,2013-08-28 10:52:00
6:12 AM,75.2,73.4,94,29.96,1.5,NE,3.5,-,N/A,,Mist,50,2013-08-28 11:12:00
6:32 AM,75.2,73.4,94,29.96,0.5,ENE,4.6,-,N/A,Fog,Fog,60,2013-08-28 11:32:00
6:52 AM,73.4,71.6,94,29.97,2.0,ENE,4.6,-,N/A,,Overcast,60,2013-08-28 11:52:00
7:13 AM,73.4,73.4,100,29.97,1.0,ENE,8.1,-,N/A,,Overcast,70,2013-08-28 12:13:00
7:32 AM,75.2,73.4,94,29.97,0.5,East,4.6,-,N/A,Fog,Fog,90,2013-08-28 12:32:00
7:52 AM,75.2,73.4,94,29.98,0.2,East,6.9,-,N/A,Fog,Fog,80,2013-08-28 12:52:00
8:13 AM,75.2,73.4,94,29.98,0.2,ENE,4.6,-,N/A,Fog,Fog,70,2013-08-28 13:13:00
8:32 AM,75.2,73.4,94,29.99,0.2,East,4.6,-,N/A,Fog,Fog,100,2013-08-28 13:32:00
8:53 AM,75.2,73.4,94,29.99,0.2,ESE,4.6,-,N/A,Fog,Fog,110,2013-08-28 13:53:00
9:12 AM,75.2,75.2,100,29.99,0.2,East,4.6,-,N/A,Fog,Fog,90,2013-08-28 14:12:00
9:33 AM,77.0,75.2,94,29.99,0.5,ESE,4.6,-,N/A,Fog,Fog,110,2013-08-28 14:33:00
9:52 AM,77.0,75.2,94,30.00,0.5,East,4.6,-,N/A,Fog,Fog,80,2013-08-28 14:52:00
10:12 AM,77.0,75.2,94,30.01,2.0,East,4.6,-,N/A,,Overcast,90,2013-08-28 15:12:00
10:33 AM,78.8,75.2,89,30.02,3.0,Calm,Calm,-,N/A,,Overcast,0,2013-08-28 15:33:00
10:52 AM,78.8,75.2,89,30.03,4.0,ENE,4.6,-,N/A,,Overcast,60,2013-08-28 15:52:00
11:12 AM,80.6,75.2,84,30.03,5.0,ENE,5.8,-,N/A,,Overcast,60,2013-08-28 16:12:00
11:33 AM,82.4,75.2,79,30.02,7.0,ENE,6.9,-,N/A,,Overcast,70,2013-08-28 16:33:00
11:52 AM,82.4,75.2,79,30.02,7.0,East,9.2,-,N/A,,Overcast,100,2013-08-28 16:52:00
12:12 PM,84.2,77.0,79,30.03,10.0,East,6.9,-,N/A,,Overcast,100,2013-08-28 17:12:00
12:33 PM,84.2,75.2,74,30.03,-9999.0,East,6.9,-,N/A,,Unknown,80,2013-08-28 17:33:00
12:52 PM,84.2,75.2,74,30.03,10.0,East,6.9,-,N/A,,Mostly Cloudy,80,2013-08-28 17:52:00
1:12 PM,84.2,75.2,74,30.03,10.0,NNE,3.5,-,N/A,,Mostly Cloudy,20,2013-08-28 18:12:00
1:32 PM,84.2,75.2,74,30.03,10.0,ESE,3.5,-,N/A,,Mostly Cloudy,110,2013-08-28 18:32:00
1:52 PM,87.8,77.0,70,30.01,10.0,East,6.9,-,N/A,,Scattered Clouds,100,2013-08-28 18:52:00
2:12 PM,86.0,75.2,70,30.02,10.0,ENE,5.8,-,N/A,,Scattered Clouds,70,2013-08-28 19:12:00
2:32 PM,86.0,75.2,70,30.01,10.0,NE,5.8,-,N/A,,Scattered Clouds,50,2013-08-28 19:32:00
2:52 PM,89.6,75.2,62,29.99,10.0,ESE,8.1,-,N/A,,Clear,120,2013-08-28 19:52:00
3:12 PM,87.8,77.0,70,29.98,10.0,ESE,9.2,-,N/A,,Clear,110,2013-08-28 20:12:00
3:32 PM,87.8,77.0,70,29.97,10.0,ESE,10.4,-,N/A,,Clear,110,2013-08-28 20:32:00
3:52 PM,89.6,77.0,66,29.99,10.0,East,8.1,-,N/A,,Clear,100,2013-08-28 20:52:00
4:12 PM,87.8,75.2,66,29.98,10.0,ESE,6.9,-,N/A,,Clear,110,2013-08-28 21:12:00
4:33 PM,87.8,77.0,70,29.99,10.0,East,6.9,-,N/A,,Clear,90,2013-08-28 21:33:00
4:52 PM,89.6,77.0,66,29.98,10.0,East,8.1,-,N/A,,Clear,90,2013-08-28 21:52:00
5:13 PM,89.6,77.0,66,29.98,10.0,SE,6.9,-,N/A,,Scattered Clouds,140,2013-08-28 22:13:00
5:32 PM,89.6,75.2,62,29.98,10.0,SE,6.9,-,N/A,,Scattered Clouds,130,2013-08-28 22:32:00
5:52 PM,89.6,77.0,66,29.98,10.0,ESE,6.9,-,N/A,,Scattered Clouds,110,2013-08-28 22:52:00
6:13 PM,89.6,77.0,66,29.98,10.0,ESE,5.8,-,N/A,,Clear,120,2013-08-28 23:13:00
6:32 PM,87.8,77.0,70,29.98,10.0,ESE,6.9,-,N/A,,Clear,120,2013-08-28 23:32:00
6:52 PM,87.8,78.8,75,29.98,10.0,ESE,4.6,-,N/A,,Clear,110,2013-08-28 23:52:00
7:12 PM,86.0,78.8,79,29.98,10.0,ESE,4.6,-,N/A,,Clear,120,2013-08-29 00:12:00
7:32 PM,84.2,78.8,84,29.98,10.0,Calm,Calm,-,N/A,,Clear,0,2013-08-29 00:32:00
7:53 PM,82.4,78.8,89,29.99,10.0,ENE,3.5,-,N/A,,Clear,70,2013-08-29 00:53:00
8:12 PM,82.4,78.8,89,29.99,7.0,ENE,3.5,-,N/A,,Clear,60,2013-08-29 01:12:00
8:32 PM,82.4,78.8,89,29.99,7.0,East,4.6,-,N/A,,Scattered Clouds,80,2013-08-29 01:32:00
8:53 PM,80.6,77.0,89,29.99,10.0,East,6.9,-,N/A,,Scattered Clouds,90,2013-08-29 01:53:00
9:12 PM,80.6,77.0,89,30.00,7.0,East,3.5,-,N/A,,Clear,90,2013-08-29 02:12:00
9:32 PM,80.6,77.0,89,30.00,7.0,East,4.6,-,N/A,,Clear,90,2013-08-29 02:32:00
9:53 PM,80.6,77.0,89,30.00,5.0,East,3.5,-,N/A,,Clear,90,2013-08-29 02:53:00
10:12 PM,78.8,75.2,89,30.00,5.0,Calm,Calm,-,N/A,,Clear,0,2013-08-29 03:12:00
10:32 PM,78.8,75.2,89,30.00,7.0,Calm,Calm,-,N/A,,Clear,0,2013-08-29 03:32:00
10:53 PM,78.8,75.2,89,30.00,7.0,SSE,3.5,-,N/A,,Clear,150,2013-08-29 03:53:00
11:12 PM,78.8,75.2,89,30.00,10.0,SSE,4.6,-,N/A,,Clear,160,2013-08-29 04:12:00
11:32 PM,78.8,73.4,83,30.00,10.0,SSE,4.6,-,N/A,,Clear,160,2013-08-29 04:32:00
11:52 PM,78.8,73.4,83,30.00,10.0,Calm,Calm,-,N/A,,Clear,0,2013-08-29 04:52:00